Location: ??
(35.5052°N, 139.7262°E)
Time: 02:25:35
(UTC+00:00)

Cosmos 1825 - Pass Details

Date: 20 June 2021
Orbit: 500 x 507 km, 82.5° (Epoch: 26 July)

Event Time Altitude Azimuth Distance (km) Brightness Sun altitude
Exits shadow 16:00:27 21° 333° (NNW) 1,173 4.4 -28.3°
Drops below altitude 10° 16:02:01 10° 348° (NNW) 1,723 5.5 -28.1°
Sets 16:04:17 0° 357° (N) 2,611 6.8 -28.0°
